Time,TemperatureF,DewpointF,PressureIn,WindDirection,WindDirectionDegrees,WindSpeedMPH,WindSpeedGustMPH,Humidity,HourlyPrecipIn,Conditions,Clouds,dailyrainin,SolarRadiationWatts/m^2,SoftwareType,DateUTC
2013-07-08 00:00:00,71.6,70.7,29.97,NE,39,0.0,0.0,97,0.00,,---,0.00,0.00,VWS V14.01,2013-07-08 04:00:00,
2013-07-08 00:01:00,71.5,70.6,29.97,NE,39,0.0,0.0,97,0.00,,---,0.00,0.00,VWS V14.01,2013-07-08 04:01:00,
2013-07-08 00:06:00,71.5,70.6,29.97,NE,39,0.0,0.0,97,0.00,,---,0.00,0.00,VWS V14.01,2013-07-08 04:06:00,
2013-07-08 00:11:00,71.5,70.6,29.97,NE,39,0.0,0.0,97,0.00,,---,0.00,0.00,VWS V14.01,2013-07-08 04:11:00,
2013-07-08 00:16:00,71.5,70.6,29.97,NE,39,0.0,0.0,97,0.00,,---,0.00,0.00,VWS V14.01,2013-07-08 04:16:00,
2013-07-08 00:21:00,71.5,70.6,29.97,NE,39,0.0,0.0,97,0.00,,---,0.00,0.00,VWS V14.01,2013-07-08 04:21:00,
2013-07-08 00:26:00,71.5,70.6,29.97,NE,39,0.0,0.0,97,0.00,,---,0.00,0.00,VWS V14.01,2013-07-08 04:26:00,
2013-07-08 00:30:00,71.4,70.5,29.97,NE,39,0.0,0.0,97,0.00,,---,0.00,0.00,VWS V14.01,2013-07-08 04:30:00,
2013-07-08 00:31:00,71.4,70.5,29.98,NE,39,0.0,0.0,97,0.00,,---,0.00,0.00,VWS V14.01,2013-07-08 04:31:00,
2013-07-08 00:36:00,71.5,70.6,29.98,NE,39,0.0,0.0,97,0.00,,---,0.00,0.00,VWS V14.01,2013-07-08 04:36:00,
2013-07-08 00:41:00,71.5,70.6,29.97,NE,39,0.0,0.0,97,0.00,,---,0.00,0.00,VWS V14.01,2013-07-08 04:41:00,
2013-07-08 00:46:00,71.4,70.5,29.98,NE,39,0.0,0.0,97,0.00,,---,0.00,0.00,VWS V14.01,2013-07-08 04:46:00,
2013-07-08 00:51:00,71.3,70.7,29.98,NE,39,0.0,0.0,98,0.00,,---,0.00,0.00,VWS V14.01,2013-07-08 04:51:00,
2013-07-08 00:56:00,71.3,70.7,29.98,NE,39,0.0,0.0,98,0.00,,---,0.00,0.00,VWS V14.01,2013-07-08 04:56:00,
2013-07-08 01:00:00,71.3,70.7,29.98,NE,39,0.0,0.0,98,0.00,,---,0.00,0.00,VWS V14.01,2013-07-08 05:00:00,
2013-07-08 01:01:00,71.3,70.7,29.98,NE,39,0.0,0.0,98,0.00,,---,0.00,0.00,VWS V14.01,2013-07-08 05:01:00,
2013-07-08 01:06:00,71.4,70.8,29.98,NE,39,0.0,0.0,98,0.00,,---,0.00,0.00,VWS V14.01,2013-07-08 05:06:00,
2013-07-08 01:11:00,71.5,70.9,29.98,NE,39,0.0,0.0,98,0.00,,---,0.00,0.00,VWS V14.01,2013-07-08 05:11:00,
2013-07-08 01:16:00,71.5,70.9,29.98,NE,39,0.0,0.0,98,0.00,,---,0.00,0.00,VWS V14.01,2013-07-08 05:16:00,
2013-07-08 01:21:00,71.4,70.8,29.98,NE,39,0.0,0.0,98,0.00,,---,0.00,0.00,VWS V14.01,2013-07-08 05:21:00,
2013-07-08 01:26:00,71.4,70.5,29.98,NE,39,0.0,0.0,97,0.00,,---,0.00,0.00,VWS V14.01,2013-07-08 05:26:00,
2013-07-08 01:30:00,71.4,70.5,29.98,NE,39,0.0,0.0,97,0.00,,---,0.00,0.00,VWS V14.01,2013-07-08 05:30:00,
2013-07-08 01:31:00,71.4,70.8,29.97,NE,39,0.0,0.0,98,0.00,,---,0.00,0.00,VWS V14.01,2013-07-08 05:31:00,
2013-07-08 01:36:00,71.3,70.7,29.98,NE,39,0.0,0.0,98,0.00,,---,0.00,0.00,VWS V14.01,2013-07-08 05:36:00,
2013-07-08 01:41:00,71.4,70.8,29.98,NE,39,0.0,0.0,98,0.00,,---,0.00,0.00,VWS V14.01,2013-07-08 05:41:00,
2013-07-08 01:46:00,71.4,70.5,29.98,NE,39,0.0,0.0,97,0.00,,---,0.00,0.00,VWS V14.01,2013-07-08 05:46:00,
2013-07-08 01:51:00,71.3,70.7,29.98,NE,39,0.0,0.0,98,0.00,,---,0.00,0.00,VWS V14.01,2013-07-08 05:51:00,
2013-07-08 01:56:00,71.2,70.6,29.98,NE,39,0.0,0.0,98,0.00,,---,0.00,0.00,VWS V14.01,2013-07-08 05:56:00,
2013-07-08 02:00:00,71.0,70.1,29.98,WNW,300,0.0,2.0,97,0.00,,---,0.00,0.00,VWS V14.01,2013-07-08 06:00:00,
2013-07-08 02:01:00,70.9,70.0,29.98,WNW,300,0.0,0.0,97,0.00,,---,0.00,0.00,VWS V14.01,2013-07-08 06:01:00,
2013-07-08 02:06:00,70.9,70.0,29.98,WNW,300,0.0,0.0,97,0.00,,---,0.00,0.00,VWS V14.01,2013-07-08 06:06:00,
2013-07-08 02:11:00,70.8,69.9,29.98,WNW,300,0.0,0.0,97,0.00,,---,0.00,0.00,VWS V14.01,2013-07-08 06:11:00,
2013-07-08 02:16:00,70.8,69.9,29.98,WNW,300,0.0,0.0,97,0.00,,---,0.00,0.00,VWS V14.01,2013-07-08 06:16:00,
2013-07-08 02:21:00,70.8,69.9,29.98,WNW,300,0.0,0.0,97,0.00,,---,0.00,0.00,VWS V14.01,2013-07-08 06:21:00,
2013-07-08 02:26:00,70.7,69.8,29.98,WNW,300,0.0,0.0,97,0.00,,---,0.00,0.00,VWS V14.01,2013-07-08 06:26:00,
2013-07-08 02:30:00,70.8,69.9,29.97,WNW,300,0.0,0.0,97,0.00,,---,0.00,0.00,VWS V14.01,2013-07-08 06:30:00,
2013-07-08 02:31:00,70.8,69.9,29.98,WNW,300,0.0,0.0,97,0.00,,---,0.00,0.00,VWS V14.01,2013-07-08 06:31:00,
2013-07-08 02:36:00,70.8,69.9,29.97,WNW,300,0.0,0.0,97,0.00,,---,0.00,0.00,VWS V14.01,2013-07-08 06:36:00,
2013-07-08 02:41:00,70.8,69.9,29.97,WNW,300,0.0,0.0,97,0.00,,---,0.00,0.00,VWS V14.01,2013-07-08 06:41:00,
2013-07-08 02:46:00,70.7,69.8,29.97,WNW,300,0.0,0.0,97,0.00,,---,0.00,0.00,VWS V14.01,2013-07-08 06:46:00,
2013-07-08 02:51:00,70.7,69.8,29.97,WNW,300,0.0,0.0,97,0.00,,---,0.00,0.00,VWS V14.01,2013-07-08 06:51:00,
2013-07-08 02:56:00,70.5,69.6,29.97,WNW,300,0.0,0.0,97,0.00,,---,0.00,0.00,VWS V14.01,2013-07-08 06:56:00,
2013-07-08 03:00:00,70.5,69.6,29.97,WNW,300,0.0,0.0,97,0.00,,---,0.00,0.00,VWS V14.01,2013-07-08 07:00:00,
2013-07-08 03:01:00,70.5,69.6,29.97,WNW,300,0.0,0.0,97,0.00,,---,0.00,0.00,VWS V14.01,2013-07-08 07:01:00,
2013-07-08 03:06:00,70.5,69.6,29.97,WNW,300,0.0,0.0,97,0.00,,---,0.00,0.00,VWS V14.01,2013-07-08 07:06:00,
2013-07-08 03:11:00,70.5,69.6,29.97,WNW,300,0.0,0.0,97,0.00,,---,0.00,0.00,VWS V14.01,2013-07-08 07:11:00,
2013-07-08 03:16:00,70.4,69.5,29.97,WNW,300,0.0,0.0,97,0.00,,---,0.00,0.00,VWS V14.01,2013-07-08 07:16:00,
2013-07-08 03:21:00,70.4,69.5,29.97,WNW,300,0.0,0.0,97,0.00,,---,0.00,0.00,VWS V14.01,2013-07-08 07:21:00,
2013-07-08 03:26:00,70.3,69.4,29.97,WNW,300,0.0,0.0,97,0.00,,---,0.00,0.00,VWS V14.01,2013-07-08 07:26:00,
2013-07-08 03:30:00,70.2,69.3,29.97,WNW,300,0.0,0.0,97,0.00,,---,0.00,0.00,VWS V14.01,2013-07-08 07:30:00,
2013-07-08 03:31:00,70.2,69.3,29.97,WNW,300,0.0,0.0,97,0.00,,---,0.00,0.00,VWS V14.01,2013-07-08 07:31:00,
2013-07-08 03:36:00,70.1,69.2,29.97,WNW,300,0.0,0.0,97,0.00,,---,0.00,0.00,VWS V14.01,2013-07-08 07:36:00,
2013-07-08 03:41:00,70.0,69.1,29.97,WNW,300,0.0,0.0,97,0.00,,---,0.00,0.00,VWS V14.01,2013-07-08 07:41:00,
2013-07-08 03:46:00,69.9,69.0,29.97,WNW,300,0.0,0.0,97,0.00,,---,0.00,0.00,VWS V14.01,2013-07-08 07:46:00,
2013-07-08 03:51:00,69.9,69.0,29.98,WNW,300,0.0,0.0,97,0.00,,---,0.00,0.00,VWS V14.01,2013-07-08 07:51:00,
2013-07-08 03:56:00,69.9,69.0,29.98,WNW,300,0.0,0.0,97,0.00,,---,0.00,0.00,VWS V14.01,2013-07-08 07:56:00,
2013-07-08 04:00:00,69.8,68.9,29.98,WNW,300,0.0,0.0,97,0.00,,---,0.00,0.00,VWS V14.01,2013-07-08 08:00:00,
2013-07-08 04:01:00,69.8,68.9,29.98,WNW,300,0.0,0.0,97,0.00,,---,0.00,0.00,VWS V14.01,2013-07-08 08:01:00,
2013-07-08 04:06:00,69.7,68.8,29.98,WNW,300,0.0,0.0,97,0.00,,---,0.00,0.00,VWS V14.01,2013-07-08 08:06:00,
2013-07-08 04:11:00,69.5,68.6,29.98,WNW,300,0.0,0.0,97,0.00,,---,0.00,0.00,VWS V14.01,2013-07-08 08:11:00,
2013-07-08 04:16:00,69.5,68.6,29.99,WNW,300,0.0,0.0,97,0.00,,---,0.00,0.00,VWS V14.01,2013-07-08 08:16:00,
2013-07-08 04:21:00,69.4,68.5,29.99,WNW,300,0.0,0.0,97,0.00,,---,0.00,0.00,VWS V14.01,2013-07-08 08:21:00,
2013-07-08 04:26:00,69.3,68.1,29.99,WNW,300,0.0,0.0,96,0.00,,---,0.00,0.00,VWS V14.01,2013-07-08 08:26:00,
2013-07-08 04:30:00,69.4,68.2,29.99,WNW,300,0.0,0.0,96,0.00,,---,0.00,0.00,VWS V14.01,2013-07-08 08:30:00,
2013-07-08 04:31:00,69.4,68.2,29.99,WNW,300,0.0,0.0,96,0.00,,---,0.00,0.00,VWS V14.01,2013-07-08 08:31:00,
2013-07-08 04:36:00,69.6,68.4,29.99,WNW,300,0.0,0.0,96,0.00,,---,0.00,0.00,VWS V14.01,2013-07-08 08:36:00,
2013-07-08 04:41:00,69.7,68.8,29.99,WNW,300,0.0,0.0,97,0.00,,---,0.00,0.00,VWS V14.01,2013-07-08 08:41:00,
2013-07-08 04:46:00,69.7,68.8,29.99,WNW,300,0.0,0.0,97,0.00,,---,0.00,0.00,VWS V14.01,2013-07-08 08:46:00,
2013-07-08 04:51:00,69.7,68.5,29.99,WNW,300,0.0,0.0,96,0.00,,---,0.00,0.00,VWS V14.01,2013-07-08 08:51:00,
2013-07-08 04:56:00,69.7,68.5,30.00,WNW,300,0.0,0.0,96,0.00,,---,0.00,0.00,VWS V14.01,2013-07-08 08:56:00,
2013-07-08 05:00:00,69.8,68.6,30.00,WNW,300,0.0,0.0,96,0.00,,---,0.00,0.00,VWS V14.01,2013-07-08 09:00:00,
2013-07-08 05:01:00,69.7,68.5,30.00,WNW,300,0.0,0.0,96,0.00,,---,0.00,0.00,VWS V14.01,2013-07-08 09:01:00,
2013-07-08 05:06:00,69.8,68.6,30.00,WNW,300,0.0,0.0,96,0.00,,---,0.00,0.00,VWS V14.01,2013-07-08 09:06:00,
2013-07-08 05:11:00,69.8,68.6,30.00,WNW,300,0.0,0.0,96,0.00,,---,0.00,0.00,VWS V14.01,2013-07-08 09:11:00,
2013-07-08 05:16:00,69.8,68.6,30.00,WNW,300,0.0,0.0,96,0.00,,---,0.00,0.00,VWS V14.01,2013-07-08 09:16:00,
2013-07-08 05:21:00,69.8,68.6,30.00,WNW,300,0.0,0.0,96,0.00,,---,0.00,0.00,VWS V14.01,2013-07-08 09:21:00,
2013-07-08 05:26:00,69.7,68.5,30.00,WNW,300,0.0,0.0,96,0.00,,---,0.00,0.00,VWS V14.01,2013-07-08 09:26:00,
2013-07-08 05:30:00,69.7,68.5,30.00,WNW,300,0.0,0.0,96,0.00,,---,0.00,0.00,VWS V14.01,2013-07-08 09:30:00,
2013-07-08 05:31:00,69.6,68.4,30.00,WNW,300,0.0,0.0,96,0.00,,---,0.00,0.00,VWS V14.01,2013-07-08 09:31:00,
2013-07-08 05:35:00,69.5,68.3,30.00,WNW,300,0.0,0.0,96,0.00,,---,0.00,0.00,VWS V14.01,2013-07-08 09:35:00,
2013-07-08 05:40:00,69.5,68.3,30.00,WNW,300,0.0,0.0,96,0.00,,---,0.00,0.00,VWS V14.01,2013-07-08 09:40:00,
2013-07-08 05:45:00,69.5,68.3,30.00,WNW,300,0.0,0.0,96,0.00,,---,0.00,5.00,VWS V14.01,2013-07-08 09:45:00,
2013-07-08 05:50:00,69.4,68.2,30.00,WNW,300,0.0,0.0,96,0.00,,---,0.00,5.00,VWS V14.01,2013-07-08 09:50:00,
2013-07-08 05:55:00,69.4,68.2,30.00,South,188,0.0,0.0,96,0.00,,---,0.00,7.00,VWS V14.01,2013-07-08 09:55:00,
2013-07-08 06:00:00,69.4,68.2,30.01,South,188,0.0,0.0,96,0.00,,---,0.00,9.00,VWS V14.01,2013-07-08 10:00:00,
2013-07-08 06:05:00,69.3,68.4,30.00,South,188,0.0,0.0,97,0.00,,---,0.00,11.00,VWS V14.01,2013-07-08 10:05:00,
2013-07-08 06:10:00,69.3,68.4,30.01,South,188,0.0,0.0,97,0.00,,---,0.00,12.00,VWS V14.01,2013-07-08 10:10:00,
2013-07-08 06:15:00,69.3,68.4,30.01,South,188,0.0,0.0,97,0.00,,---,0.00,14.00,VWS V14.01,2013-07-08 10:15:00,
2013-07-08 06:20:00,69.3,68.4,30.01,South,188,0.0,0.0,97,0.00,,---,0.00,19.00,VWS V14.01,2013-07-08 10:20:00,
2013-07-08 06:25:00,69.2,68.3,30.01,South,188,0.0,0.0,97,0.00,,---,0.00,33.00,VWS V14.01,2013-07-08 10:25:00,
2013-07-08 06:30:00,69.7,68.5,30.00,WNW,300,0.0,0.0,96,0.00,,---,0.00,0.00,VWS V14.01,2013-07-08 10:30:00,
2013-07-08 06:39:00,69.2,68.3,30.01,South,188,0.0,0.0,97,0.00,,---,0.00,65.00,VWS V14.01,2013-07-08 10:39:00,
2013-07-08 06:44:00,69.3,68.4,30.02,South,188,0.0,0.0,97,0.00,,---,0.00,86.00,VWS V14.01,2013-07-08 10:44:00,
2013-07-08 06:49:00,69.4,68.5,30.01,South,188,0.0,0.0,97,0.00,,---,0.00,139.00,VWS V14.01,2013-07-08 10:49:00,
2013-07-08 06:54:00,69.7,68.8,30.01,South,188,0.0,0.0,97,0.00,,---,0.00,91.00,VWS V14.01,2013-07-08 10:54:00,
2013-07-08 06:59:00,70.0,69.1,30.01,South,188,0.0,0.0,97,0.00,,---,0.00,51.00,VWS V14.01,2013-07-08 10:59:00,
2013-07-08 07:00:00,70.0,68.8,30.01,South,188,0.0,0.0,96,0.00,,---,0.00,81.00,VWS V14.01,2013-07-08 11:00:00,
2013-07-08 07:04:00,70.1,68.9,30.01,South,188,0.0,0.0,96,0.00,,---,0.00,174.00,VWS V14.01,2013-07-08 11:04:00,
2013-07-08 07:09:00,70.4,69.2,30.01,South,188,0.0,0.0,96,0.00,,---,0.00,199.00,VWS V14.01,2013-07-08 11:09:00,
2013-07-08 07:14:00,70.8,69.6,30.01,South,188,0.0,1.0,96,0.00,,---,0.00,216.00,VWS V14.01,2013-07-08 11:14:00,
2013-07-08 07:19:00,71.1,69.3,30.02,South,188,0.0,1.0,94,0.00,,---,0.00,221.00,VWS V14.01,2013-07-08 11:19:00,
2013-07-08 07:24:00,71.4,69.6,30.02,South,188,0.0,1.0,94,0.00,,---,0.00,250.00,VWS V14.01,2013-07-08 11:24:00,
2013-07-08 07:29:00,71.7,69.9,30.02,South,188,0.0,1.0,94,0.00,,---,0.00,271.00,VWS V14.01,2013-07-08 11:29:00,
2013-07-08 07:30:00,71.8,69.7,30.02,South,188,0.0,1.0,93,0.00,,---,0.00,274.00,VWS V14.01,2013-07-08 11:30:00,
2013-07-08 07:34:00,72.2,70.1,30.02,South,189,0.0,0.0,93,0.00,,---,0.00,287.00,VWS V14.01,2013-07-08 11:34:00,
2013-07-08 07:39:00,72.4,69.9,30.02,South,189,0.0,0.0,92,0.00,,---,0.00,299.00,VWS V14.01,2013-07-08 11:39:00,
2013-07-08 07:44:00,72.8,70.0,30.02,South,180,0.0,0.0,91,0.00,,---,0.00,313.00,VWS V14.01,2013-07-08 11:44:00,
2013-07-08 07:49:00,72.9,69.8,30.03,SW,235,0.0,0.0,90,0.00,,---,0.00,327.00,VWS V14.01,2013-07-08 11:49:00,
2013-07-08 07:54:00,73.2,70.1,30.03,SE,140,0.0,1.0,90,0.00,,---,0.00,345.00,VWS V14.01,2013-07-08 11:54:00,
2013-07-08 07:59:00,73.5,70.4,30.03,SE,140,1.0,1.0,90,0.00,,---,0.00,357.00,VWS V14.01,2013-07-08 11:59:00,
2013-07-08 08:00:00,73.5,70.4,30.03,SE,140,0.0,1.0,90,0.00,,---,0.00,357.00,VWS V14.01,2013-07-08 12:00:00,
2013-07-08 08:04:00,73.8,70.7,30.03,SE,140,0.0,0.0,90,0.00,,---,0.00,369.00,VWS V14.01,2013-07-08 12:04:00,
2013-07-08 08:09:00,74.0,70.2,30.03,SE,140,0.0,0.0,88,0.00,,---,0.00,408.00,VWS V14.01,2013-07-08 12:09:00,
2013-07-08 08:14:00,74.3,70.8,30.03,SE,140,0.0,0.0,89,0.00,,---,0.00,394.00,VWS V14.01,2013-07-08 12:14:00,
2013-07-08 08:19:00,74.6,70.8,30.03,SE,140,0.0,0.0,88,0.00,,---,0.00,422.00,VWS V14.01,2013-07-08 12:19:00,
2013-07-08 08:24:00,74.9,71.1,30.03,WNW,292,0.0,0.0,88,0.00,,---,0.00,425.00,VWS V14.01,2013-07-08 12:24:00,
2013-07-08 08:29:00,75.3,71.5,30.03,WNW,292,0.0,0.0,88,0.00,,---,0.00,489.00,VWS V14.01,2013-07-08 12:29:00,
2013-07-08 08:30:00,75.3,71.2,30.03,WNW,292,0.0,0.0,87,0.00,,---,0.00,485.00,VWS V14.01,2013-07-08 12:30:00,
2013-07-08 08:34:00,75.6,71.5,30.03,WNW,292,0.0,0.0,87,0.00,,---,0.00,547.00,VWS V14.01,2013-07-08 12:34:00,
2013-07-08 08:39:00,75.7,70.9,30.04,WNW,292,0.0,0.0,85,0.00,,---,0.00,199.00,VWS V14.01,2013-07-08 12:39:00,
2013-07-08 08:44:00,75.8,71.0,30.03,WNW,292,0.0,0.0,85,0.00,,---,0.00,260.00,VWS V14.01,2013-07-08 12:44:00,
2013-07-08 08:49:00,76.6,72.4,30.03,WNW,292,0.0,1.0,87,0.00,,---,0.00,584.00,VWS V14.01,2013-07-08 12:49:00,
2013-07-08 08:54:00,76.9,71.3,30.03,WNW,292,0.0,1.0,83,0.00,,---,0.00,118.00,VWS V14.01,2013-07-08 12:54:00,
2013-07-08 08:59:00,77.0,71.4,30.03,WNW,292,0.0,3.0,83,0.00,,---,0.00,125.00,VWS V14.01,2013-07-08 12:59:00,
2013-07-08 09:00:00,77.0,71.4,30.03,WNW,292,2.0,3.0,83,0.00,,---,0.00,134.00,VWS V14.01,2013-07-08 13:00:00,
2013-07-08 09:04:00,76.9,71.3,30.03,WNW,292,0.0,2.0,83,0.00,,---,0.00,606.00,VWS V14.01,2013-07-08 13:04:00,
2013-07-08 09:09:00,77.2,71.6,30.03,WSW,240,0.0,5.0,83,0.00,,---,0.00,137.00,VWS V14.01,2013-07-08 13:09:00,
2013-07-08 09:14:00,77.1,71.2,30.03,WSW,240,0.0,5.0,82,0.00,,---,0.00,167.00,VWS V14.01,2013-07-08 13:14:00,
2013-07-08 09:19:00,77.0,70.7,30.03,WSW,240,0.0,5.0,81,0.00,,---,0.00,657.00,VWS V14.01,2013-07-08 13:19:00,
2013-07-08 09:24:00,77.5,71.9,30.03,West,266,0.0,5.0,83,0.00,,---,0.00,657.00,VWS V14.01,2013-07-08 13:24:00,
2013-07-08 09:29:00,77.8,71.1,30.03,West,266,0.0,5.0,80,0.00,,---,0.00,197.00,VWS V14.01,2013-07-08 13:29:00,
2013-07-08 09:30:00,77.8,70.8,30.03,West,277,3.0,5.0,79,0.00,,---,0.00,197.00,VWS V14.01,2013-07-08 13:30:00,
2013-07-08 09:34:00,77.8,71.1,30.02,West,277,0.0,3.0,80,0.00,,---,0.00,174.00,VWS V14.01,2013-07-08 13:34:00,
2013-07-08 09:39:00,78.1,71.1,30.02,West,277,0.0,3.0,79,0.00,,---,0.00,670.00,VWS V14.01,2013-07-08 13:39:00,
2013-07-08 09:44:00,78.4,70.6,30.02,West,265,0.0,5.0,77,0.00,,---,0.00,670.00,VWS V14.01,2013-07-08 13:44:00,
2013-07-08 09:49:00,78.7,71.3,30.02,WNW,302,0.0,5.0,78,0.00,,---,0.00,659.00,VWS V14.01,2013-07-08 13:49:00,
2013-07-08 09:54:00,78.9,71.1,30.02,WNW,302,0.0,5.0,77,0.00,,---,0.00,737.00,VWS V14.01,2013-07-08 13:54:00,
2013-07-08 09:59:00,78.9,71.5,30.02,WNW,302,0.0,5.0,78,0.00,,---,0.00,190.00,VWS V14.01,2013-07-08 13:59:00,
2013-07-08 10:00:00,78.9,71.5,30.02,WNW,302,0.0,5.0,78,0.00,,---,0.00,253.00,VWS V14.01,2013-07-08 14:00:00,
2013-07-08 10:04:00,79.0,71.6,30.02,WNW,302,0.0,3.0,78,0.00,,---,0.00,540.00,VWS V14.01,2013-07-08 14:04:00,
2013-07-08 10:09:00,79.3,72.2,30.02,WNW,302,0.0,3.0,79,0.00,,---,0.00,733.00,VWS V14.01,2013-07-08 14:09:00,
2013-07-08 10:14:00,79.4,71.6,30.02,WNW,302,0.0,3.0,77,0.00,,---,0.00,267.00,VWS V14.01,2013-07-08 14:14:00,
2013-07-08 10:19:00,79.5,72.0,30.02,WNW,302,0.0,3.0,78,0.00,,---,0.00,260.00,VWS V14.01,2013-07-08 14:19:00,
2013-07-08 10:24:00,79.7,72.6,30.03,NW,317,0.0,3.0,79,0.00,,---,0.00,260.00,VWS V14.01,2013-07-08 14:24:00,
2013-07-08 10:29:00,80.2,71.6,30.03,NW,319,0.0,3.0,75,0.00,,---,0.00,385.00,VWS V14.01,2013-07-08 14:29:00,
2013-07-08 10:30:00,80.2,71.2,30.03,NW,319,0.0,3.0,74,0.00,,---,0.00,237.00,VWS V14.01,2013-07-08 14:30:00,
2013-07-08 10:34:00,80.2,71.6,30.03,NW,319,0.0,0.0,75,0.00,,---,0.00,279.00,VWS V14.01,2013-07-08 14:34:00,
2013-07-08 10:39:00,80.2,72.7,30.03,NW,319,0.0,0.0,78,0.00,,---,0.00,448.00,VWS V14.01,2013-07-08 14:39:00,
2013-07-08 10:44:00,80.3,73.2,30.03,NW,323,0.0,0.0,79,0.00,,---,0.00,954.00,VWS V14.01,2013-07-08 14:44:00,
2013-07-08 10:49:00,80.5,72.6,30.03,NNW,338,0.0,0.0,77,0.00,,---,0.00,338.00,VWS V14.01,2013-07-08 14:49:00,
2013-07-08 10:54:00,80.7,73.2,30.03,West,269,0.0,4.0,78,0.00,,---,0.00,287.00,VWS V14.01,2013-07-08 14:54:00,
2013-07-08 10:59:00,80.5,72.2,30.03,West,269,0.0,4.0,76,0.00,,---,0.00,325.00,VWS V14.01,2013-07-08 14:59:00,
2013-07-08 11:00:00,80.4,72.5,30.03,West,269,0.0,4.0,77,0.00,,---,0.00,325.00,VWS V14.01,2013-07-08 15:00:00,
2013-07-08 11:04:00,80.1,72.2,30.03,NW,304,0.0,5.0,77,0.00,,---,0.00,359.00,VWS V14.01,2013-07-08 15:04:00,
2013-07-08 11:09:00,80.2,73.1,30.03,NW,304,0.0,5.0,79,0.00,,---,0.00,302.00,VWS V14.01,2013-07-08 15:09:00,
2013-07-08 11:14:00,80.0,72.2,30.03,WNW,282,2.0,5.0,77,0.00,,---,0.00,227.00,VWS V14.01,2013-07-08 15:14:00,
2013-07-08 11:19:00,79.6,71.8,30.04,WSW,255,0.0,5.0,77,0.00,,---,0.00,322.00,VWS V14.01,2013-07-08 15:19:00,
2013-07-08 11:24:00,79.5,72.4,30.04,WSW,255,0.0,5.0,79,0.00,,---,0.00,306.00,VWS V14.01,2013-07-08 15:24:00,
2013-07-08 11:29:00,79.7,72.6,30.04,WSW,255,0.0,5.0,79,0.00,,---,0.00,380.00,VWS V14.01,2013-07-08 15:29:00,
2013-07-08 11:30:00,79.8,72.7,30.03,WSW,255,0.0,5.0,79,0.00,,---,0.00,380.00,VWS V14.01,2013-07-08 15:30:00,
2013-07-08 11:34:00,80.2,73.5,30.03,WSW,255,0.0,0.0,80,0.00,,---,0.00,953.00,VWS V14.01,2013-07-08 15:34:00,
2013-07-08 11:39:00,81.2,73.7,30.03,ESE,107,0.0,3.0,78,0.00,,---,0.00,954.00,VWS V14.01,2013-07-08 15:39:00,
2013-07-08 11:44:00,81.6,73.3,30.03,West,280,0.0,4.0,76,0.00,,---,0.00,1037.00,VWS V14.01,2013-07-08 15:44:00,
2013-07-08 11:49:00,81.7,73.0,30.03,SE,138,2.0,4.0,75,0.00,,---,0.00,925.00,VWS V14.01,2013-07-08 15:49:00,
2013-07-08 11:54:00,82.0,71.7,30.03,NW,304,0.0,4.0,71,0.00,,---,0.00,956.00,VWS V14.01,2013-07-08 15:54:00,
2013-07-08 11:59:00,82.3,72.8,30.03,NW,304,0.0,4.0,73,0.00,,---,0.00,258.00,VWS V14.01,2013-07-08 15:59:00,
2013-07-08 12:00:00,82.3,73.2,30.03,WNW,299,3.0,4.0,74,0.00,,---,0.00,332.00,VWS V14.01,2013-07-08 16:00:00,
2013-07-08 12:04:00,82.2,72.3,30.03,WNW,301,0.0,5.0,72,0.00,,---,0.00,332.00,VWS V14.01,2013-07-08 16:04:00,
2013-07-08 12:09:00,81.9,71.6,30.03,WSW,240,0.0,5.0,71,0.00,,---,0.00,633.00,VWS V14.01,2013-07-08 16:09:00,
2013-07-08 12:14:00,81.9,73.2,30.03,WSW,252,0.0,5.0,75,0.00,,---,0.00,947.00,VWS V14.01,2013-07-08 16:14:00,
2013-07-08 12:19:00,82.4,72.9,30.03,WSW,252,0.0,5.0,73,0.00,,---,0.00,926.00,VWS V14.01,2013-07-08 16:19:00,
2013-07-08 12:24:00,82.8,72.9,30.02,West,263,0.0,6.0,72,0.00,,---,0.00,1002.00,VWS V14.01,2013-07-08 16:24:00,
2013-07-08 12:29:00,82.8,72.0,30.03,NW,312,0.0,6.0,70,0.00,,---,0.00,287.00,VWS V14.01,2013-07-08 16:29:00,
2013-07-08 12:30:00,82.8,72.0,30.03,WSW,253,0.0,6.0,70,0.00,,---,0.00,1123.00,VWS V14.01,2013-07-08 16:30:00,
2013-07-08 12:34:00,82.8,72.9,30.03,WNW,294,0.0,2.0,72,0.00,,---,0.00,329.00,VWS V14.01,2013-07-08 16:34:00,
2013-07-08 12:39:00,82.7,71.5,30.03,WNW,294,0.0,2.0,69,0.00,,---,0.00,334.00,VWS V14.01,2013-07-08 16:39:00,
2013-07-08 12:44:00,82.5,71.7,30.03,West,273,0.0,4.0,70,0.00,,---,0.00,325.00,VWS V14.01,2013-07-08 16:44:00,
2013-07-08 12:49:00,83.0,72.2,30.02,West,265,0.0,6.0,70,0.00,,---,0.00,1134.00,VWS V14.01,2013-07-08 16:49:00,
2013-07-08 12:54:00,83.7,73.3,30.02,West,267,4.0,6.0,71,0.00,,---,0.00,1114.00,VWS V14.01,2013-07-08 16:54:00,
2013-07-08 12:59:00,83.5,72.3,30.02,WNW,296,2.0,6.0,69,0.00,,---,0.00,271.00,VWS V14.01,2013-07-08 16:59:00,
2013-07-08 13:00:00,83.5,72.3,30.02,WNW,296,4.0,6.0,69,0.00,,---,0.00,265.00,VWS V14.01,2013-07-08 17:00:00,
2013-07-08 13:04:00,83.2,72.0,30.02,WNW,296,0.0,4.0,69,0.00,,---,0.00,260.00,VWS V14.01,2013-07-08 17:04:00,
2013-07-08 13:09:00,82.8,72.4,30.02,WNW,296,0.0,4.0,71,0.00,,---,0.00,264.00,VWS V14.01,2013-07-08 17:09:00,
2013-07-08 13:14:00,83.0,72.6,30.02,WNW,296,0.0,4.0,71,0.00,,---,0.00,1039.00,VWS V14.01,2013-07-08 17:14:00,
2013-07-08 13:19:00,83.8,73.8,30.02,WNW,296,0.0,4.0,72,0.00,,---,0.00,417.00,VWS V14.01,2013-07-08 17:19:00,
2013-07-08 13:24:00,84.0,73.6,30.02,NW,318,0.0,4.0,71,0.00,,---,0.00,192.00,VWS V14.01,2013-07-08 17:24:00,
2013-07-08 13:29:00,83.6,72.8,30.02,NW,318,1.0,4.0,70,0.00,,---,0.00,139.00,VWS V14.01,2013-07-08 17:29:00,
2013-07-08 13:30:00,83.6,72.4,30.02,WSW,238,3.0,4.0,69,0.00,,---,0.00,139.00,VWS V14.01,2013-07-08 17:30:00,
2013-07-08 13:35:00,82.7,73.2,30.02,NW,304,0.0,6.0,73,0.00,,---,0.00,77.00,VWS V14.01,2013-07-08 17:35:00,
2013-07-08 13:40:00,80.9,73.0,30.02,SW,227,0.0,6.0,77,0.01,,---,0.01,88.00,VWS V14.01,2013-07-08 17:40:00,
2013-07-08 13:45:00,79.0,73.0,30.03,SW,227,0.0,6.0,82,0.03,,---,0.03,77.00,VWS V14.01,2013-07-08 17:45:00,
2013-07-08 13:50:00,77.3,73.1,30.02,SW,227,0.0,6.0,87,0.05,,---,0.05,91.00,VWS V14.01,2013-07-08 17:50:00,
2013-07-08 13:55:00,76.5,73.0,30.02,SW,227,0.0,6.0,89,0.06,,---,0.06,93.00,VWS V14.01,2013-07-08 17:55:00,
2013-07-08 14:00:00,76.0,72.9,30.02,SW,227,0.0,6.0,90,0.07,,---,0.07,93.00,VWS V14.01,2013-07-08 18:00:00,
2013-07-08 14:05:00,75.8,73.0,30.03,SW,227,0.0,0.0,91,0.08,,---,0.08,65.00,VWS V14.01,2013-07-08 18:05:00,
2013-07-08 14:10:00,75.7,73.2,30.03,SW,227,0.0,0.0,92,0.10,,---,0.10,65.00,VWS V14.01,2013-07-08 18:10:00,
2013-07-08 14:15:00,75.5,73.3,30.03,SW,227,0.0,0.0,93,0.15,,---,0.15,54.00,VWS V14.01,2013-07-08 18:15:00,
2013-07-08 14:20:00,75.3,73.1,30.04,SW,227,0.0,0.0,93,0.18,,---,0.18,69.00,VWS V14.01,2013-07-08 18:20:00,
2013-07-08 14:26:00,75.1,72.9,30.04,SW,227,0.0,0.0,93,0.23,,---,0.23,95.00,VWS V14.01,2013-07-08 18:26:00,
2013-07-08 14:30:00,74.9,73.1,30.04,SW,227,0.0,0.0,94,0.27,,---,0.27,77.00,VWS V14.01,2013-07-08 18:30:00,
2013-07-08 14:31:00,74.9,73.1,30.04,SW,227,0.0,0.0,94,0.29,,---,0.29,74.00,VWS V14.01,2013-07-08 18:31:00,
2013-07-08 14:36:00,74.8,73.0,30.04,SW,227,0.0,0.0,94,0.34,,---,0.34,83.00,VWS V14.01,2013-07-08 18:36:00,
2013-07-08 14:41:00,74.6,72.8,30.04,SW,227,0.0,0.0,94,0.36,,---,0.36,98.00,VWS V14.01,2013-07-08 18:41:00,
2013-07-08 14:46:00,74.4,72.6,30.04,SW,227,0.0,0.0,94,0.38,,---,0.38,98.00,VWS V14.01,2013-07-08 18:46:00,
2013-07-08 14:51:00,74.1,72.3,30.03,SW,227,0.0,0.0,94,0.40,,---,0.40,107.00,VWS V14.01,2013-07-08 18:51:00,
2013-07-08 14:57:00,74.0,72.5,30.03,SW,227,0.0,0.0,95,0.44,,---,0.44,137.00,VWS V14.01,2013-07-08 18:57:00,
2013-07-08 15:00:00,74.0,72.5,30.02,SW,227,0.0,0.0,95,0.46,,---,0.46,165.00,VWS V14.01,2013-07-08 19:00:00,
2013-07-08 15:02:00,74.0,72.5,30.02,SW,227,0.0,0.0,95,0.39,,---,0.46,190.00,VWS V14.01,2013-07-08 19:02:00,
2013-07-08 15:07:00,74.4,73.2,30.03,SW,227,0.0,0.0,96,0.39,,---,0.46,209.00,VWS V14.01,2013-07-08 19:07:00,
2013-07-08 15:12:00,74.3,73.1,30.02,SW,227,0.0,0.0,96,0.39,,---,0.46,204.00,VWS V14.01,2013-07-08 19:12:00,
2013-07-08 15:17:00,74.4,73.2,30.02,SW,227,0.0,0.0,96,0.39,,---,0.46,279.00,VWS V14.01,2013-07-08 19:17:00,
2013-07-08 15:22:00,74.5,73.0,30.02,SW,227,0.0,0.0,95,0.39,,---,0.46,325.00,VWS V14.01,2013-07-08 19:22:00,
2013-07-08 15:27:00,75.3,74.1,30.02,SW,227,0.0,0.0,96,0.39,,---,0.46,399.00,VWS V14.01,2013-07-08 19:27:00,
2013-07-08 15:30:00,75.2,73.7,30.02,SW,227,0.0,0.0,95,0.39,,---,0.46,425.00,VWS V14.01,2013-07-08 19:30:00,
2013-07-08 15:33:00,75.2,73.4,30.02,SW,227,0.0,0.0,94,0.19,,---,0.46,877.00,VWS V14.01,2013-07-08 19:33:00,
2013-07-08 15:38:00,75.5,73.3,30.02,SW,227,0.0,0.0,93,0.19,,---,0.46,747.00,VWS V14.01,2013-07-08 19:38:00,
2013-07-08 15:43:00,75.6,73.1,30.02,SW,227,0.0,0.0,92,0.19,,---,0.46,703.00,VWS V14.01,2013-07-08 19:43:00,
2013-07-08 15:49:00,76.1,73.9,30.02,SW,227,0.0,0.0,93,0.19,,---,0.46,691.00,VWS V14.01,2013-07-08 19:49:00,
2013-07-08 15:54:00,76.4,74.2,30.01,SW,227,0.0,1.0,93,0.19,,---,0.46,684.00,VWS V14.01,2013-07-08 19:54:00,
2013-07-08 15:59:00,76.6,74.1,30.02,SW,227,0.0,1.0,92,0.19,,---,0.46,638.00,VWS V14.01,2013-07-08 19:59:00,
2013-07-08 16:00:00,76.6,74.1,30.02,SW,227,0.0,1.0,92,0.19,,---,0.46,657.00,VWS V14.01,2013-07-08 20:00:00,
2013-07-08 16:04:00,77.1,74.3,30.01,NE,39,0.0,1.0,91,0.00,,---,0.46,568.00,VWS V14.01,2013-07-08 20:04:00,
2013-07-08 16:09:00,77.5,74.7,30.01,NE,39,0.0,1.0,91,0.00,,---,0.46,643.00,VWS V14.01,2013-07-08 20:09:00,
2013-07-08 16:15:00,78.0,74.2,30.01,NE,40,0.0,1.0,88,0.00,,---,0.46,624.00,VWS V14.01,2013-07-08 20:15:00,
2013-07-08 16:20:00,78.4,74.6,30.00,NE,40,0.0,1.0,88,0.00,,---,0.46,601.00,VWS V14.01,2013-07-08 20:20:00,
2013-07-08 16:25:00,78.4,74.6,30.00,South,171,0.0,1.0,88,0.00,,---,0.46,564.00,VWS V14.01,2013-07-08 20:25:00,
2013-07-08 16:30:00,78.6,74.4,30.00,NNE,29,0.0,1.0,87,0.00,,---,0.46,608.00,VWS V14.01,2013-07-08 20:30:00,
2013-07-08 16:35:00,78.6,74.8,30.00,NNE,29,0.0,1.0,88,0.00,,---,0.46,148.00,VWS V14.01,2013-07-08 20:35:00,
2013-07-08 16:40:00,78.5,74.7,30.00,NNE,29,0.0,1.0,88,0.00,,---,0.46,134.00,VWS V14.01,2013-07-08 20:40:00,
2013-07-08 16:46:00,78.4,74.6,30.00,NNE,29,0.0,1.0,88,0.00,,---,0.46,174.00,VWS V14.01,2013-07-08 20:46:00,
2013-07-08 16:51:00,78.7,74.8,30.00,NNE,29,0.0,1.0,88,0.00,,---,0.46,589.00,VWS V14.01,2013-07-08 20:51:00,
2013-07-08 16:56:00,79.2,75.0,29.99,NNE,29,0.0,1.0,87,0.00,,---,0.46,701.00,VWS V14.01,2013-07-08 20:56:00,
2013-07-08 17:00:00,79.8,75.6,29.99,ENE,59,0.0,1.0,87,0.00,,---,0.46,650.00,VWS V14.01,2013-07-08 21:00:00,
2013-07-08 17:01:00,79.9,75.7,29.99,ENE,59,0.0,0.0,87,0.00,,---,0.46,288.00,VWS V14.01,2013-07-08 21:01:00,
2013-07-08 17:06:00,79.9,75.0,30.00,ENE,59,0.0,0.0,85,0.00,,---,0.46,508.00,VWS V14.01,2013-07-08 21:06:00,
2013-07-08 17:11:00,80.5,75.2,29.99,ENE,59,0.0,0.0,84,0.00,,---,0.46,482.00,VWS V14.01,2013-07-08 21:11:00,
2013-07-08 17:16:00,81.1,75.4,29.99,ENE,59,0.0,0.0,83,0.00,,---,0.46,461.00,VWS V14.01,2013-07-08 21:16:00,
2013-07-08 17:21:00,81.1,74.7,29.99,ENE,59,0.0,0.0,81,0.00,,---,0.46,424.00,VWS V14.01,2013-07-08 21:21:00,
2013-07-08 17:26:00,80.9,74.9,29.99,ENE,59,0.0,0.0,82,0.00,,---,0.46,197.00,VWS V14.01,2013-07-08 21:26:00,
2013-07-08 17:30:00,80.6,74.6,29.99,ENE,59,0.0,0.0,82,0.00,,---,0.46,390.00,VWS V14.01,2013-07-08 21:30:00,
2013-07-08 17:32:00,80.3,73.6,30.00,ENE,59,0.0,0.0,80,0.00,,---,0.46,336.00,VWS V14.01,2013-07-08 21:32:00,
2013-07-08 17:37:00,79.9,73.6,29.99,ENE,59,0.0,0.0,81,0.00,,---,0.46,169.00,VWS V14.01,2013-07-08 21:37:00,
2013-07-08 17:42:00,79.5,73.5,30.00,ENE,59,0.0,0.0,82,0.00,,---,0.46,183.00,VWS V14.01,2013-07-08 21:42:00,
2013-07-08 17:47:00,79.3,73.7,29.99,ENE,59,0.0,1.0,83,0.00,,---,0.46,237.00,VWS V14.01,2013-07-08 21:47:00,
2013-07-08 17:53:00,79.3,73.3,29.99,ENE,59,0.0,1.0,82,0.00,,---,0.46,107.00,VWS V14.01,2013-07-08 21:53:00,
2013-07-08 17:58:00,79.1,72.8,29.99,ENE,59,0.0,1.0,81,0.00,,---,0.46,90.00,VWS V14.01,2013-07-08 21:58:00,
2013-07-08 18:00:00,79.1,73.1,29.99,ENE,59,0.0,1.0,82,0.00,,---,0.46,98.00,VWS V14.01,2013-07-08 22:00:00,
2013-07-08 18:03:00,79.1,73.8,29.99,ENE,59,0.0,0.0,84,0.00,,---,0.46,98.00,VWS V14.01,2013-07-08 22:03:00,
2013-07-08 18:08:00,79.1,74.2,29.99,ENE,59,0.0,0.0,85,0.00,,---,0.46,90.00,VWS V14.01,2013-07-08 22:08:00,
2013-07-08 18:13:00,79.0,74.5,29.99,ENE,59,0.0,0.0,86,0.00,,---,0.46,91.00,VWS V14.01,2013-07-08 22:13:00,
2013-07-08 18:18:00,78.9,74.7,29.99,ENE,59,0.0,0.0,87,0.00,,---,0.46,97.00,VWS V14.01,2013-07-08 22:18:00,
2013-07-08 18:23:00,78.9,75.4,29.99,ENE,59,0.0,0.0,89,0.00,,---,0.46,84.00,VWS V14.01,2013-07-08 22:23:00,
2013-07-08 18:28:00,78.6,75.1,29.99,ENE,59,0.0,0.0,89,0.00,,---,0.46,74.00,VWS V14.01,2013-07-08 22:28:00,
2013-07-08 18:30:00,78.5,75.0,29.99,ENE,59,0.0,0.0,89,0.00,,---,0.46,63.00,VWS V14.01,2013-07-08 22:30:00,
2013-07-08 18:34:00,78.3,74.8,30.00,ENE,59,0.0,0.0,89,0.00,,---,0.46,30.00,VWS V14.01,2013-07-08 22:34:00,
2013-07-08 18:39:00,78.1,74.9,30.00,ENE,59,0.0,0.0,90,0.00,,---,0.46,18.00,VWS V14.01,2013-07-08 22:39:00,
2013-07-08 18:45:00,77.6,74.4,30.00,ENE,59,0.0,0.0,90,0.00,,---,0.46,14.00,VWS V14.01,2013-07-08 22:45:00,
2013-07-08 18:50:00,77.4,74.6,30.00,ENE,59,0.0,0.0,91,0.00,,---,0.46,14.00,VWS V14.01,2013-07-08 22:50:00,
2013-07-08 18:55:00,77.2,74.4,30.00,ENE,59,0.0,0.0,91,0.00,,---,0.46,16.00,VWS V14.01,2013-07-08 22:55:00,
2013-07-08 19:00:00,76.9,74.1,30.00,ENE,59,0.0,0.0,91,0.00,,---,0.46,16.00,VWS V14.01,2013-07-08 23:00:00,
2013-07-08 19:05:00,76.4,73.6,30.01,ENE,59,0.0,0.0,91,0.00,,---,0.46,12.00,VWS V14.01,2013-07-08 23:05:00,
2013-07-08 19:11:00,76.0,73.2,30.01,ENE,59,0.0,1.0,91,0.00,,---,0.46,7.00,VWS V14.01,2013-07-08 23:11:00,
2013-07-08 19:16:00,75.8,73.3,30.00,ENE,59,0.0,1.0,92,0.00,,---,0.46,12.00,VWS V14.01,2013-07-08 23:16:00,
2013-07-08 19:21:00,75.7,73.2,30.01,ENE,59,0.0,1.0,92,0.00,,---,0.46,12.00,VWS V14.01,2013-07-08 23:21:00,
2013-07-08 19:26:00,75.5,73.3,30.00,ENE,59,0.0,1.0,93,0.00,,---,0.46,14.00,VWS V14.01,2013-07-08 23:26:00,
2013-07-08 19:30:00,75.4,73.2,30.00,ENE,59,0.0,1.0,93,0.00,,---,0.46,12.00,VWS V14.01,2013-07-08 23:30:00,
2013-07-08 19:31:00,75.4,73.2,30.00,ENE,59,0.0,0.0,93,0.00,,---,0.46,12.00,VWS V14.01,2013-07-08 23:31:00,
2013-07-08 19:36:00,75.3,73.1,30.01,ENE,59,0.0,0.0,93,0.00,,---,0.46,11.00,VWS V14.01,2013-07-08 23:36:00,
2013-07-08 19:41:00,75.0,72.8,30.01,ENE,59,0.0,0.0,93,0.00,,---,0.46,11.00,VWS V14.01,2013-07-08 23:41:00,
2013-07-08 19:46:00,74.9,72.7,30.01,ENE,59,0.0,0.0,93,0.00,,---,0.46,7.00,VWS V14.01,2013-07-08 23:46:00,
2013-07-08 19:51:00,74.8,72.6,30.01,ENE,59,0.0,0.0,93,0.00,,---,0.46,11.00,VWS V14.01,2013-07-08 23:51:00,
2013-07-08 19:57:00,74.7,72.6,30.02,ENE,59,0.0,0.0,93,0.00,,---,0.46,12.00,VWS V14.01,2013-07-08 23:57:00,
2013-07-08 20:00:00,74.6,72.4,30.02,ENE,59,0.0,0.0,93,0.00,,---,0.46,11.00,VWS V14.01,2013-07-09 00:00:00,
2013-07-08 20:02:00,74.6,72.4,30.02,ENE,59,0.0,0.0,93,0.00,,---,0.46,11.00,VWS V14.01,2013-07-09 00:02:00,
2013-07-08 20:07:00,74.5,72.3,30.03,ENE,59,0.0,0.0,93,0.00,,---,0.46,12.00,VWS V14.01,2013-07-09 00:07:00,
2013-07-08 20:12:00,74.3,72.2,30.03,ENE,59,0.0,2.0,93,0.00,,---,0.46,9.00,VWS V14.01,2013-07-09 00:12:00,
2013-07-08 20:17:00,74.2,72.1,30.04,North,5,0.0,5.0,93,0.00,,---,0.46,5.00,VWS V14.01,2013-07-09 00:17:00,
2013-07-08 20:22:00,74.0,71.2,30.04,WNW,288,2.0,5.0,91,0.00,,---,0.46,5.00,VWS V14.01,2013-07-09 00:22:00,
2013-07-08 20:28:00,73.7,70.9,30.04,West,261,0.0,6.0,91,0.00,,---,0.46,0.00,VWS V14.01,2013-07-09 00:28:00,
2013-07-08 20:30:00,73.5,70.7,30.04,NW,305,3.0,6.0,91,0.00,,---,0.46,0.00,VWS V14.01,2013-07-09 00:30:00,
2013-07-08 20:33:00,73.3,70.5,30.04,West,273,0.0,3.0,91,0.00,,---,0.46,0.00,VWS V14.01,2013-07-09 00:33:00,
2013-07-08 20:38:00,72.9,70.1,30.04,NW,308,0.0,4.0,91,0.00,,---,0.46,0.00,VWS V14.01,2013-07-09 00:38:00,
2013-07-08 20:44:00,72.7,69.9,30.04,NW,308,0.0,4.0,91,0.00,,---,0.46,0.00,VWS V14.01,2013-07-09 00:44:00,
2013-07-08 20:49:00,72.4,69.3,30.04,NW,308,0.0,4.0,90,0.00,,---,0.46,0.00,VWS V14.01,2013-07-09 00:49:00,
2013-07-08 20:54:00,72.1,69.0,30.04,North,5,0.0,4.0,90,0.00,,---,0.46,0.00,VWS V14.01,2013-07-09 00:54:00,
2013-07-08 20:59:00,71.9,68.8,30.05,North,5,0.0,4.0,90,0.00,,---,0.46,0.00,VWS V14.01,2013-07-09 00:59:00,
2013-07-08 21:00:00,71.9,69.1,30.05,North,5,0.0,4.0,91,0.00,,---,0.46,0.00,VWS V14.01,2013-07-09 01:00:00,
2013-07-08 21:04:00,71.7,68.6,30.05,West,263,0.0,3.0,90,0.00,,---,0.46,0.00,VWS V14.01,2013-07-09 01:04:00,
2013-07-08 21:09:00,71.6,68.5,30.05,West,263,1.0,3.0,90,0.00,,---,0.46,0.00,VWS V14.01,2013-07-09 01:09:00,
2013-07-08 21:14:00,71.6,68.8,30.05,West,263,0.0,3.0,91,0.00,,---,0.46,0.00,VWS V14.01,2013-07-09 01:14:00,
2013-07-08 21:19:00,71.5,68.7,30.06,West,263,0.0,3.0,91,0.00,,---,0.46,0.00,VWS V14.01,2013-07-09 01:19:00,
2013-07-08 21:25:00,71.4,69.0,30.06,West,263,0.0,3.0,92,0.00,,---,0.46,0.00,VWS V14.01,2013-07-09 01:25:00,
2013-07-08 21:30:00,71.2,68.4,30.06,West,263,0.0,3.0,91,0.00,,---,0.46,0.00,VWS V14.01,2013-07-09 01:30:00,
2013-07-08 21:35:00,71.0,68.6,30.06,West,263,0.0,0.0,92,0.00,,---,0.46,0.00,VWS V14.01,2013-07-09 01:35:00,
2013-07-08 21:40:00,70.9,68.5,30.07,West,263,0.0,0.0,92,0.00,,---,0.46,0.00,VWS V14.01,2013-07-09 01:40:00,
2013-07-08 21:45:00,70.7,68.3,30.07,West,263,0.0,0.0,92,0.00,,---,0.46,0.00,VWS V14.01,2013-07-09 01:45:00,
2013-07-08 21:50:00,70.7,68.6,30.06,West,263,0.0,0.0,93,0.00,,---,0.46,0.00,VWS V14.01,2013-07-09 01:50:00,
2013-07-08 21:56:00,70.4,68.0,30.07,West,263,0.0,2.0,92,0.00,,---,0.46,0.00,VWS V14.01,2013-07-09 01:56:00,
2013-07-08 22:00:00,70.2,67.8,30.06,West,263,0.0,2.0,92,0.00,,---,0.46,0.00,VWS V14.01,2013-07-09 02:00:00,
2013-07-08 22:01:00,70.2,67.8,30.06,West,263,0.0,0.0,92,0.00,,---,0.46,0.00,VWS V14.01,2013-07-09 02:01:00,
2013-07-08 22:06:00,70.1,67.7,30.06,West,263,0.0,0.0,92,0.00,,---,0.46,0.00,VWS V14.01,2013-07-09 02:06:00,
2013-07-08 22:11:00,70.0,67.9,30.07,West,263,0.0,0.0,93,0.00,,---,0.46,0.00,VWS V14.01,2013-07-09 02:11:00,
2013-07-08 22:16:00,69.8,67.7,30.07,West,263,0.0,0.0,93,0.00,,---,0.46,0.00,VWS V14.01,2013-07-09 02:16:00,
2013-07-08 22:21:00,69.8,67.7,30.07,West,263,0.0,0.0,93,0.00,,---,0.46,0.00,VWS V14.01,2013-07-09 02:21:00,
2013-07-08 22:26:00,69.7,67.6,30.07,West,263,0.0,0.0,93,0.00,,---,0.46,0.00,VWS V14.01,2013-07-09 02:26:00,
2013-07-08 22:30:00,69.7,67.6,30.07,West,263,0.0,0.0,93,0.00,,---,0.46,0.00,VWS V14.01,2013-07-09 02:30:00,
2013-07-08 22:32:00,69.7,67.6,30.07,West,263,0.0,0.0,93,0.00,,---,0.46,0.00,VWS V14.01,2013-07-09 02:32:00,
2013-07-08 22:37:00,69.6,67.8,30.07,West,263,0.0,0.0,94,0.00,,---,0.46,0.00,VWS V14.01,2013-07-09 02:37:00,
2013-07-08 22:42:00,69.6,67.8,30.06,West,263,0.0,0.0,94,0.00,,---,0.46,0.00,VWS V14.01,2013-07-09 02:42:00,
2013-07-08 22:47:00,69.6,67.8,30.07,West,263,0.0,0.0,94,0.00,,---,0.46,0.00,VWS V14.01,2013-07-09 02:47:00,
2013-07-08 22:52:00,69.5,67.7,30.06,West,263,0.0,0.0,94,0.00,,---,0.46,0.00,VWS V14.01,2013-07-09 02:52:00,
2013-07-08 22:57:00,69.6,67.8,30.06,West,263,0.0,0.0,94,0.00,,---,0.46,0.00,VWS V14.01,2013-07-09 02:57:00,
2013-07-08 23:00:00,69.5,68.0,30.07,West,263,0.0,0.0,95,0.00,,---,0.46,0.00,VWS V14.01,2013-07-09 03:00:00,
2013-07-08 23:02:00,69.5,67.7,30.07,West,263,0.0,0.0,94,0.00,,---,0.46,0.00,VWS V14.01,2013-07-09 03:02:00,
2013-07-08 23:07:00,69.5,68.0,30.07,West,263,0.0,0.0,95,0.00,,---,0.46,0.00,VWS V14.01,2013-07-09 03:07:00,
2013-07-08 23:12:00,69.5,68.0,30.06,West,263,0.0,0.0,95,0.00,,---,0.46,0.00,VWS V14.01,2013-07-09 03:12:00,
2013-07-08 23:18:00,69.4,67.9,30.07,West,263,0.0,0.0,95,0.00,,---,0.46,0.00,VWS V14.01,2013-07-09 03:18:00,
2013-07-08 23:23:00,69.4,67.9,30.06,West,263,0.0,0.0,95,0.00,,---,0.46,0.00,VWS V14.01,2013-07-09 03:23:00,
2013-07-08 23:28:00,69.4,67.9,30.06,West,263,0.0,0.0,95,0.00,,---,0.46,0.00,VWS V14.01,2013-07-09 03:28:00,
2013-07-08 23:30:00,69.4,67.9,30.07,West,263,0.0,0.0,95,0.00,,---,0.46,0.00,VWS V14.01,2013-07-09 03:30:00,
2013-07-08 23:34:00,69.4,67.9,30.07,West,263,0.0,0.0,95,0.00,,---,0.46,0.00,VWS V14.01,2013-07-09 03:34:00,
2013-07-08 23:39:00,69.3,67.8,30.06,West,263,0.0,0.0,95,0.00,,---,0.46,0.00,VWS V14.01,2013-07-09 03:39:00,
2013-07-08 23:44:00,69.3,67.8,30.06,West,263,0.0,0.0,95,0.00,,---,0.46,0.00,VWS V14.01,2013-07-09 03:44:00,
2013-07-08 23:50:00,69.3,67.8,30.06,West,263,0.0,0.0,95,0.00,,---,0.46,0.00,VWS V14.01,2013-07-09 03:50:00,
2013-07-08 23:55:00,69.2,67.7,30.06,West,263,0.0,0.0,95,0.00,,---,0.46,0.00,VWS V14.01,2013-07-09 03:55:00,